This demonstration page uses our WeatherBlox Daily Observations layout. Learn more.

Left ArrowRight Arrow

Hourly Observations for September 26, 2022

Temp ( °F °C ) Dew Point ( °F °C ) Humidity (%) Winds ( mph kmh ) Pressure ( in mb ) Visibility ( mi km ) Precip ( " mm )
12:56 am 00:56 Clear 50 10 41 5 71 71 NW 8 13 30.19 1022 10 16 0.00 0.00
1:56 am 01:56 Clear 52 11.1 39 3.9 61 61 NNW 7 11 30.19 1022 10 16 0.00 0.00
2:56 am 02:56 Clear 46 7.8 39 3.9 76 76 NNW 5 7 30.19 1022 10 16 0.00 0.00
3:56 am 03:56 Clear 46 7.8 38 3.3 73 73 WNW 8 13 30.20 1023 10 16 0.00 0.00
4:56 am 04:56 Clear 45 7.2 38 3.3 76 76 W 5 7 30.19 1023 10 16 0.00 0.00
5:56 am 05:56 Clear 44 6.7 37 2.8 76 76 WNW 6 9 30.22 1023 10 16 0.00 0.00
6:56 am 06:56 Clear 43 6.1 36 2.2 76 76 NW 8 13 30.23 1024 10 16 0.00 0.00
7:56 am 07:56 Sunny 42 5.6 37 2.8 82 82 NW 7 11 30.23 1024 10 16 0.00 0.00
8:56 am 08:56 Sunny 49 9.4 40 4.4 71 71 NNW 3 6 30.24 1024 10 16 0.00 0.00
9:56 am 09:56 Sunny 57 13.9 41 5 55 55 N 3 6 30.25 1024 10 16 0.00 0.00
10:56 am 10:56 Sunny 65 18.3 38 3.3 37 37 Calm 30.23 1024 10 16 0.00 0.00
11:56 am 11:56 Sunny 68 20 34 1.1 28 28 Calm 30.22 1023 10 16 0.00 0.00
12:56 pm 12:56 Sunny 71 21.7 36 2.2 28 28 S 6 9 30.19 1022 10 16 0.00 0.00
1:56 pm 13:56 Sunny 73 22.8 36 2.2 26 26 ESE 5 7 30.16 1021 10 16 0.00 0.00
2:56 pm 14:56 Sunny 76 24.4 39 3.9 26 26 W 6 9 30.13 1020 10 16 0.00 0.00
3:56 pm 15:56 Sunny 76 24.4 38 3.3 25 25 WSW 5 7 30.11 1020 10 16 0.00 0.00
4:56 pm 16:56 Sunny 77 25 40 4.4 26 26 SW 9 15 30.09 1019 10 16 0.00 0.00
5:56 pm 17:56 Sunny 76 24.4 41 5 29 29 SSW 8 13 30.09 1019 10 16 0.00 0.00
6:56 pm 18:56 Sunny 71 21.7 45 7.2 39 39 S 6 9 30.09 1019 10 16 0.00 0.00
7:56 pm 19:56 Clear 63 17.2 46 7.8 54 54 SSE 6 9 30.10 1019 10 16 0.00 0.00
8:56 pm 20:56 Clear 59 15 47 8.3 64 64 SSE 7 11 30.10 1019 10 16 0.00 0.00
9:56 pm 21:56 Clear 56 13.3 46 7.8 69 69 S 9 15 30.10 1019 10 16 0.00 0.00
10:56 pm 22:56 Clear 57 13.9 45 7.2 64 64 S 8 13 30.09 1019 10 16 0.00 0.00
11:56 pm 23:56 Clear 57 13.9 44 6.7 62 62 SSW 10 17 30.10 1019 10 16 0.00 0.00

Powered by AerisWeather